When you browse on this site, cookies collect data to enhance your experience and personalize the content and advertising you see.
Visit our Privacy Policy to learn more. By continuing to use the site, you agree to this use of cookies and data.
  • En España
  • Lista de países
  • Para 7 días
  • Temperatura del agua
  • Mapa Satelital
  • El tiempo en el mapa
  • Informadores
  • user-avatar
    Iniciar sesión

    Tiempo cada hora Innsbruck

    Hoy, 20 Julio, Sábado

    Tiempo Temperatura Precipitaciones Viento Presión Humedad
    00:00 +8°C° 0 mm 1 mps 598 mmHg 90%
    01:00 +7°C° 0 mm 2 mps 598 mmHg 90%
    02:00 +7°C° 0 mm 2 mps 598 mmHg 89%
    03:00 +7°C° 0 mm 2 mps 598 mmHg 89%
    04:00 +6°C° 0 mm 2 mps 598 mmHg 88%
    05:00 +9°C° 0 mm 1 mps 599 mmHg 85%
    06:00 +11°C° 0 mm 1 mps 600 mmHg 83%
    07:00 +13°C° 0 mm 1 mps 600 mmHg 80%
    08:00 +15°C° 0 mm 1 mps 601 mmHg 71%
    09:00 +18°C° 0 mm 1 mps 602 mmHg 62%
    10:00 +20°C° 0 mm 1 mps 603 mmHg 53%
    11:00 +21°C° 0.4 mm 1 mps 603 mmHg 51%
    12:00 +21°C° 0.4 mm 1 mps 603 mmHg 50%
    13:00 +21°C° 0.4 mm 1 mps 603 mmHg 48%
    14:00 +21°C° 0.6 mm 1 mps 603 mmHg 50%
    15:00 +20°C° 0.6 mm 1 mps 603 mmHg 53%
    16:00 +20°C° 0.6 mm 1 mps 603 mmHg 55%
    17:00 +18°C° 1.5 mm 1 mps 602 mmHg 66%
    18:00 +15°C° 1.5 mm 1 mps 602 mmHg 77%
    19:00 +13°C° 1.5 mm 1 mps 601 mmHg 88%
    20:00 +12°C° 0.4 mm 1 mps 601 mmHg 88%
    21:00 +11°C° 0.4 mm 1 mps 600 mmHg 88%
    22:00 +9°C° 0.4 mm 1 mps 600 mmHg 88%
    23:00 +9°C° 0 mm 1 mps 600 mmHg 87%

    Mañana, 21 Julio, Domingo

    Tiempo Temperatura Precipitaciones Viento Presión Humedad
    00:00 +9°C° 0 mm 1 mps 600 mmHg 86%
    01:00 +10°C° 0 mm 1 mps 601 mmHg 85%
    02:00 +10°C° 0 mm 1 mps 600 mmHg 84%
    03:00 +9°C° 0 mm 1 mps 600 mmHg 84%
    04:00 +9°C° 0 mm 1 mps 600 mmHg 84%
    05:00 +11°C° 0 mm 1 mps 601 mmHg 81%
    06:00 +11°C° 0 mm 0 mps 602 mmHg 79%
    07:00 +12°C° 0 mm 0 mps 603 mmHg 76%
    08:00 +15°C° 0.2 mm 1 mps 603 mmHg 71%
    09:00 +16°C° 0.2 mm 1 mps 604 mmHg 67%
    10:00 +18°C° 0.2 mm 2 mps 605 mmHg 62%
    11:00 +17°C° 0.9 mm 2 mps 605 mmHg 66%
    12:00 +17°C° 0.9 mm 2 mps 605 mmHg 69%
    13:00 +17°C° 0.9 mm 2 mps 605 mmHg 72%
    14:00 +17°C° 0.8 mm 2 mps 605 mmHg 73%
    15:00 +17°C° 0.8 mm 2 mps 605 mmHg 74%
    16:00 +17°C° 0.8 mm 2 mps 605 mmHg 75%
    17:00 +16°C° 0.4 mm 2 mps 605 mmHg 79%
    18:00 +15°C° 0.4 mm 1 mps 604 mmHg 84%
    19:00 +14°C° 0.4 mm 1 mps 604 mmHg 89%
    20:00 +13°C° 0.1 mm 1 mps 604 mmHg 90%
    21:00 +11°C° 0.1 mm 1 mps 603 mmHg 91%
    22:00 +8°C° 0.1 mm 0 mps 603 mmHg 93%
    23:00 +8°C° 0 mm 0 mps 603 mmHg 92%

    Pasado mañana, 22 Julio, Lunes

    Tiempo Temperatura Precipitaciones Viento Presión Humedad
    00:00 +8°C° 0 mm 0 mps 603 mmHg 91%
    01:00 +8°C° 0 mm 0 mps 603 mmHg 90%
    02:00 +8°C° 0 mm 0 mps 603 mmHg 90%
    03:00 +8°C° 0 mm 0 mps 603 mmHg 89%
    04:00 +8°C° 0 mm 0 mps 603 mmHg 88%
    05:00 +9°C° 0 mm 0 mps 603 mmHg 86%
    06:00 +11°C° 0 mm 0 mps 604 mmHg 83%
    07:00 +12°C° 0 mm 0 mps 605 mmHg 81%
    08:00 +15°C° 0 mm 1 mps 605 mmHg 74%
    09:00 +18°C° 0 mm 1 mps 606 mmHg 66%
    10:00 +20°C° 0 mm 1 mps 607 mmHg 59%
    11:00 +20°C° 0.1 mm 1 mps 607 mmHg 56%
    12:00 +20°C° 0.1 mm 2 mps 607 mmHg 54%
    13:00 +21°C° 0.1 mm 2 mps 607 mmHg 51%
    14:00 +21°C° 0.1 mm 2 mps 607 mmHg 53%
    15:00 +20°C° 0.1 mm 2 mps 607 mmHg 55%
    16:00 +20°C° 0.1 mm 2 mps 607 mmHg 56%
    17:00 +19°C° 0.1 mm 2 mps 606 mmHg 66%
    18:00 +17°C° 0.1 mm 2 mps 605 mmHg 75%
    19:00 +16°C° 0.1 mm 1 mps 605 mmHg 84%
    20:00 +14°C° 0 mm 1 mps 604 mmHg 88%
    21:00 +12°C° 0 mm 1 mps 604 mmHg 91%
    22:00 +10°C° 0 mm 0 mps 603 mmHg 94%
    23:00 +9°C° 0 mm 0 mps 603 mmHg 93%

    23 Julio, Martes

    Tiempo Temperatura Precipitaciones Viento Presión Humedad
    00:00 +9°C° 0 mm 0 mps 603 mmHg 93%
    01:00 +9°C° 0 mm 0 mps 602 mmHg 93%
    02:00 +8°C° 0 mm 0 mps 602 mmHg 92%
    03:00 +8°C° 0 mm 0 mps 602 mmHg 91%
    04:00 +8°C° 0 mm 0 mps 602 mmHg 91%
    05:00 +10°C° 0 mm 0 mps 603 mmHg 85%
    06:00 +12°C° 0 mm 0 mps 603 mmHg 80%
    07:00 +14°C° 0 mm 0 mps 604 mmHg 75%
    08:00 +18°C° 0 mm 1 mps 605 mmHg 65%
    09:00 +19°C° 0 mm 1 mps 606 mmHg 55%
    10:00 +20°C° 0 mm 2 mps 607 mmHg 45%
    11:00 +21°C° 0 mm 2 mps 607 mmHg 42%
    12:00 +23°C° 0 mm 2 mps 607 mmHg 38%
    13:00 +24°C° 0 mm 2 mps 607 mmHg 34%
    14:00 +24°C° 0 mm 2 mps 606 mmHg 35%
    15:00 +24°C° 0 mm 2 mps 606 mmHg 36%
    16:00 +24°C° 0 mm 2 mps 606 mmHg 36%
    17:00 +21°C° 0 mm 2 mps 605 mmHg 47%
    18:00 +19°C° 0 mm 2 mps 605 mmHg 57%
    19:00 +18°C° 0 mm 1 mps 604 mmHg 67%
    20:00 +15°C° 0 mm 1 mps 603 mmHg 72%
    21:00 +13°C° 0 mm 1 mps 602 mmHg 77%
    22:00 +10°C° 0 mm 0 mps 601 mmHg 82%
    23:00 +11°C° 0 mm 1 mps 601 mmHg 81%

    24 Julio, Miércoles

    Tiempo Temperatura Precipitaciones Viento Presión Humedad
    00:00 +11°C° 0 mm 1 mps 601 mmHg 79%
    01:00 +11°C° 0 mm 1 mps 601 mmHg 78%
    02:00 +10°C° 0 mm 1 mps 601 mmHg 79%
    03:00 +10°C° 0 mm 1 mps 601 mmHg 79%
    04:00 +10°C° 0 mm 1 mps 600 mmHg 80%
    05:00 +11°C° 0 mm 0 mps 601 mmHg 76%
    06:00 +13°C° 0 mm 0 mps 603 mmHg 71%
    07:00 +15°C° 0 mm 0 mps 604 mmHg 67%
    08:00 +17°C° 0 mm 0 mps 604 mmHg 58%
    09:00 +21°C° 0 mm 1 mps 605 mmHg 50%
    10:00 +23°C° 0 mm 1 mps 606 mmHg 41%
    11:00 +24°C° 0 mm 1 mps 606 mmHg 38%
    12:00 +25°C° 0 mm 2 mps 606 mmHg 34%
    13:00 +26°C° 0 mm 2 mps 606 mmHg 31%
    14:00 +26°C° 0 mm 2 mps 606 mmHg 32%
    15:00 +25°C° 0 mm 2 mps 606 mmHg 34%
    16:00 +25°C° 0 mm 2 mps 606 mmHg 36%
    17:00 +23°C° 0 mm 2 mps 605 mmHg 47%
    18:00 +20°C° 0 mm 2 mps 604 mmHg 58%
    19:00 +19°C° 0 mm 1 mps 604 mmHg 70%
    20:00 +18°C° 0 mm 1 mps 603 mmHg 75%
    21:00 +15°C° 0 mm 1 mps 602 mmHg 81%
    22:00 +12°C° 0 mm 0 mps 602 mmHg 86%
    23:00 +11°C° 0 mm 0 mps 602 mmHg 86%

    25 Julio, Jueves

    Tiempo Temperatura Precipitaciones Viento Presión Humedad
    00:00 +12°C° 0 mm 1 mps 602 mmHg 85%
    01:00 +12°C° 0 mm 1 mps 601 mmHg 84%
    02:00 +12°C° 0 mm 1 mps 601 mmHg 84%
    03:00 +12°C° 0 mm 1 mps 601 mmHg 83%
    04:00 +12°C° 0 mm 1 mps 601 mmHg 82%
    05:00 +13°C° 0 mm 1 mps 602 mmHg 78%
    06:00 +15°C° 0 mm 1 mps 603 mmHg 73%
    07:00 +18°C° 0 mm 1 mps 604 mmHg 69%
    08:00 +20°C° 0 mm 1 mps 604 mmHg 62%
    09:00 +22°C° 0 mm 1 mps 605 mmHg 54%
    10:00 +24°C° 0 mm 1 mps 606 mmHg 47%
    11:00 +25°C° 0 mm 1 mps 606 mmHg 43%
    12:00 +26°C° 0 mm 1 mps 606 mmHg 39%
    13:00 +27°C° 0 mm 2 mps 606 mmHg 35%
    14:00 +26°C° 0.1 mm 2 mps 606 mmHg 36%
    15:00 +26°C° 0.1 mm 2 mps 606 mmHg 38%
    16:00 +26°C° 0.1 mm 2 mps 605 mmHg 39%
    17:00 +24°C° 0.1 mm 2 mps 605 mmHg 50%
    18:00 +22°C° 0.1 mm 1 mps 604 mmHg 61%
    19:00 +20°C° 0.1 mm 1 mps 603 mmHg 72%
    20:00 +18°C° 0.1 mm 1 mps 603 mmHg 77%
    21:00 +15°C° 0.1 mm 1 mps 602 mmHg 81%
    22:00 +13°C° 0.1 mm 0 mps 601 mmHg 85%
    23:00 +13°C° 0 mm 1 mps 601 mmHg 85%
    Mostrar más